User: anonymous   Login
Location: Albuquerque Trailhead
(34.7934°N, 106.3736°W)
Time: 11:18:31
(UTC+00:00)
Language:

JUGNU - Orbit

View from above orbital plane
View from above orbital plane
View from above satellite
View from above satellite

Ground track
Ground track

The orbit data is extracted from the following two-line orbital elements,

1 37839U 11058B   23087.13490978  .00000687  00000-0  22283-3 0  9997
2 37839  19.9605 254.6813 0018928  45.0221 111.5345 14.12915862592413
Epoch (UTC): 28 March 2023 03:14:16
Eccentricity: 0.0018928
inclination: 19.9605°
perigee height: 836 km
apogee height: 863 km
right ascension of ascending node: 254.6813°
argument of perigee: 45.0221°
revolutions per day: 14.12915862
mean anomaly at epoch: 111.5345°
orbit number at epoch: 59241

The dashed part of the orbit path shows where the satellite is in the earth's shadow,  

DLR